| time (UTC) | temp C | wind direction | speed KPH | gust KPH | rain 1hr cm | rain 24hr cm | rain mn cm | humidity % | barometer mb |
| 20260505140518 | 20 | 3 | 1.6 | 6.4 | 0.00 | 0.00 | 0.00 | 51 | 1015.8 |
| 20260505124516 | 8 | 55 | 0.0 | 3.2 | 0.00 | 0.00 | 0.00 | 89 | 1015.8 |
| 20260505123536 | 7 | 63 | 0.0 | 1.6 | 0.00 | 0.00 | 0.00 | 93 | 1015.9 |
| 20260505122516 | 6 | 43 | 0.0 | 3.2 | 0.00 | 0.00 | 0.00 | 94 | 1015.8 |
| 20260505121518 | 6 | 54 | 0.0 | 1.6 | 0.00 | 0.00 | 0.00 | 93 | 1015.7 |
| 20260505120517 | 5 | 98 | 0.0 | 0.0 | 0.00 | 0.00 | 0.00 | 93 | 1015.8 |
| 20260505115517 | 5 | 0.0 | 0.0 | 0.00 | 0.00 | 0.00 | 93 | 1015.7 | |
| 20260505114517 | 4 | 91 | 0.0 | 1.6 | 0.00 | 0.00 | 0.00 | 93 | 1015.7 |
| 20260505113517 | 4 | 0.0 | 0.0 | 0.00 | 0.00 | 0.00 | 93 | 1015.9 | |
| 20260505112517 | 3 | 138 | 0.0 | 1.6 | 0.00 | 0.00 | 0.00 | 93 | 1015.9 |
| 20260505111517 | 3 | 127 | 0.0 | 1.6 | 0.00 | 0.00 | 0.00 | 93 | 1015.7 |
| 20260505110518 | 3 | 73 | 0.0 | 0.0 | 0.00 | 0.00 | 0.00 | 93 | 1015.6 |
| 20260505101536 | 4 | 17 | 0.0 | 0.0 | 0.00 | 0.00 | 0.00 | 92 | 1014.9 |
| 20260505100517 | 4 | 0.0 | 0.0 | 0.00 | 0.00 | 0.00 | 92 | 1014.8 | |
| 20260505095537 | 4 | 146 | 0.0 | 1.6 | 0.00 | 0.00 | 0.00 | 92 | 1014.8 |
| 20260505094517 | 4 | 165 | 0.0 | 1.6 | 0.00 | 0.00 | 0.00 | 92 | 1014.8 |
| 20260505093517 | 4 | 159 | 0.0 | 1.6 | 0.00 | 0.00 | 0.00 | 92 | 1014.8 |
| 20260505092517 | 4 | 0.0 | 0.0 | 0.00 | 0.00 | 0.00 | 92 | 1014.8 | |
| 20260505091517 | 5 | 135 | 0.0 | 1.6 | 0.00 | 0.00 | 0.00 | 91 | 1014.9 |
| 20260505090517 | 5 | 39 | 0.0 | 0.0 | 0.00 | 0.00 | 0.00 | 91 | 1014.8 |
| 20260505085518 | 5 | 88 | 0.0 | 1.6 | 0.00 | 0.00 | 0.00 | 91 | 1014.8 |
| 20260505084538 | 5 | 10 | 0.0 | 1.6 | 0.00 | 0.00 | 0.00 | 91 | 1014.8 |
| 20260505083519 | 5 | 125 | 0.0 | 1.6 | 0.00 | 0.00 | 0.00 | 91 | 1014.9 |
| 20260505082518 | 5 | 192 | 0.0 | 1.6 | 0.00 | 0.00 | 0.00 | 90 | 1014.9 |
| 20260505081516 | 5 | 111 | 0.0 | 3.2 | 0.00 | 0.00 | 0.00 | 90 | 1014.6 |
| 20260505080515 | 5 | 358 | 0.0 | 3.2 | 0.00 | 0.00 | 0.00 | 89 | 1014.6 |
| 20260505075516 | 5 | 346 | 0.0 | 1.6 | 0.00 | 0.00 | 0.00 | 89 | 1014.5 |
| 20260505074516 | 6 | 138 | 0.0 | 3.2 | 0.00 | 0.00 | 0.00 | 89 | 1014.4 |
| 20260505073517 | 6 | 87 | 0.0 | 3.2 | 0.00 | 0.00 | 0.00 | 88 | 1014.4 |
| 20260505072516 | 6 | 130 | 0.0 | 1.6 | 0.00 | 0.00 | 0.00 | 88 | 1014.2 |
| 20260505071517 | 6 | 25 | 0.0 | 3.2 | 0.00 | 0.00 | 0.00 | 88 | 1014.1 |
| 20260505070517 | 6 | 22 | 0.0 | 1.6 | 0.00 | 0.00 | 0.00 | 87 | 1014.1 |
| 20260505065537 | 7 | 55 | 0.0 | 3.2 | 0.00 | 0.00 | 0.00 | 87 | 1014.0 |
| 20260505064522 | 7 | 145 | 0.0 | 1.6 | 0.00 | 0.00 | 0.00 | 87 | 1014.0 |
| 20260505063518 | 7 | 121 | 0.0 | 3.2 | 0.00 | 0.00 | 0.00 | 87 | 1014.0 |
| 20260505062518 | 7 | 177 | 1.6 | 4.8 | 0.00 | 0.00 | 0.00 | 86 | 1014.1 |
| 20260505061518 | 7 | 94 | 0.0 | 3.2 | 0.00 | 0.00 | 0.00 | 85 | 1014.0 |
| 20260505060518 | 8 | 167 | 1.6 | 3.2 | 0.00 | 0.00 | 0.00 | 85 | 1014.0 |
| 20260505055538 | 8 | 11 | 0.0 | 3.2 | 0.00 | 0.00 | 0.00 | 84 | 1014.0 |
| 20260505054519 | 8 | 153 | 0.0 | 1.6 | 0.00 | 0.00 | 0.00 | 84 | 1014.0 |
| 20260505053519 | 8 | 69 | 0.0 | 4.8 | 0.00 | 0.00 | 0.00 | 84 | 1013.9 |
| 20260505052519 | 8 | 74 | 1.6 | 3.2 | 0.00 | 0.00 | 0.00 | 83 | 1013.9 |
| 20260505051516 | 9 | 53 | 0.0 | 3.2 | 0.00 | 0.00 | 0.00 | 82 | 1013.8 |
| 20260505050521 | 9 | 95 | 1.6 | 3.2 | 0.00 | 0.00 | 0.00 | 82 | 1013.7 |
| 20260505041517 | 10 | 19 | 1.6 | 4.8 | 0.00 | 0.00 | 0.00 | 81 | 1013.6 |
| 20260505040517 | 10 | 40 | 1.6 | 4.8 | 0.00 | 0.00 | 0.00 | 80 | 1013.5 |
| 20260505035517 | 10 | 94 | 1.6 | 4.8 | 0.00 | 0.00 | 0.00 | 81 | 1013.5 |
| 20260505034517 | 10 | 19 | 1.6 | 4.8 | 0.00 | 0.00 | 0.00 | 81 | 1013.6 |
| 20260505033517 | 10 | 130 | 0.0 | 3.2 | 0.00 | 0.00 | 0.00 | 81 | 1013.6 |
| 20260505032517 | 10 | 127 | 0.0 | 3.2 | 0.00 | 0.00 | 0.00 | 81 | 1013.6 |
| 20260505031518 | 10 | 130 | 3.2 | 6.4 | 0.00 | 0.00 | 0.00 | 81 | 1013.7 |
| 20260505030518 | 10 | 108 | 1.6 | 4.8 | 0.00 | 0.00 | 0.00 | 81 | 1013.7 |
| 20260505025518 | 10 | 124 | 0.0 | 3.2 | 0.00 | 0.00 | 0.00 | 81 | 1013.8 |
| 20260505024515 | 10 | 13 | 1.6 | 6.4 | 0.00 | 0.00 | 0.00 | 81 | 1013.8 |
| 20260505023518 | 11 | 22 | 0.0 | 3.2 | 0.00 | 0.00 | 0.00 | 79 | 1013.8 |
| 20260505022516 | 11 | 121 | 1.6 | 4.8 | 0.00 | 0.00 | 0.00 | 79 | 1013.8 |
| 20260505021516 | 11 | 190 | 0.0 | 3.2 | 0.00 | 0.00 | 0.00 | 78 | 1013.9 |
| 20260505020516 | 11 | 134 | 0.0 | 1.6 | 0.00 | 0.00 | 0.00 | 78 | 1013.9 |
| 20260505015537 | 11 | 130 | 0.0 | 3.2 | 0.00 | 0.00 | 0.00 | 77 | 1013.9 |
| 20260505014516 | 11 | 62 | 0.0 | 1.6 | 0.00 | 0.00 | 0.00 | 77 | 1013.9 |
| 20260505013516 | 12 | 138 | 0.0 | 3.2 | 0.00 | 0.00 | 0.00 | 76 | 1013.8 |
| 20260505012517 | 12 | 115 | 0.0 | 3.2 | 0.00 | 0.00 | 0.00 | 75 | 1013.6 |
| 20260505011517 | 13 | 340 | 0.0 | 1.6 | 0.00 | 0.00 | 0.00 | 73 | 1013.5 |
| 20260505010517 | 13 | 14 | 0.0 | 1.6 | 0.00 | 0.00 | 0.00 | 71 | 1013.3 |
| 20260505005518 | 13 | 356 | 0.0 | 1.6 | 0.00 | 0.00 | 0.00 | 69 | 1013.0 |
| 20260505004517 | 15 | 343 | 0.0 | 1.6 | 0.00 | 0.00 | 0.00 | 70 | 1012.9 |
| 20260505003517 | 15 | 121 | 0.0 | 1.6 | 0.00 | 0.00 | 0.00 | 67 | 1012.8 |
| 20260505002537 | 16 | 290 | 0.0 | 1.6 | 0.00 | 0.00 | 0.00 | 64 | 1012.7 |
| 20260505001518 | 17 | 230 | 0.0 | 1.6 | 0.00 | 0.00 | 0.00 | 61 | 1012.6 |
| 20260505000518 | 17 | 358 | 0.0 | 3.2 | 0.00 | 0.00 | 0.00 | 57 | 1012.6 |
| 20260504235516 | 18 | 202 | 1.6 | 4.8 | 0.00 | 0.00 | 0.00 | 56 | 1012.5 |
| 20260504234518 | 19 | 191 | 1.6 | 4.8 | 0.00 | 0.00 | 0.00 | 54 | 1012.5 |
| 20260504233516 | 20 | 119 | 3.2 | 9.7 | 0.00 | 0.00 | 0.00 | 49 | 1012.4 |
| 20260504232516 | 21 | 24 | 1.6 | 4.8 | 0.00 | 0.00 | 0.00 | 48 | 1012.4 |
| 20260504231517 | 21 | 36 | 1.6 | 6.4 | 0.00 | 0.00 | 0.00 | 44 | 1012.3 |
| 20260504230517 | 22 | 177 | 3.2 | 8.0 | 0.00 | 0.00 | 0.00 | 43 | 1012.3 |
| 20260504225517 | 22 | 4 | 1.6 | 4.8 | 0.00 | 0.00 | 0.00 | 43 | 1012.4 |
| 20260504224517 | 22 | 350 | 3.2 | 8.0 | 0.00 | 0.00 | 0.00 | 43 | 1012.4 |
| 20260504223537 | 22 | 348 | 1.6 | 4.8 | 0.00 | 0.00 | 0.00 | 43 | 1012.4 |
| 20260504222537 | 22 | 11 | 3.2 | 9.7 | 0.00 | 0.00 | 0.00 | 41 | 1012.3 |
| 20260504221517 | 22 | 148 | 3.2 | 14.5 | 0.00 | 0.00 | 0.00 | 41 | 1012.3 |
| 20260504220537 | 22 | 40 | 1.6 | 6.4 | 0.00 | 0.00 | 0.00 | 42 | 1012.4 |
| 20260504215518 | 22 | 339 | 3.2 | 9.7 | 0.00 | 0.00 | 0.00 | 40 | 1012.5 |
| 20260504214518 | 22 | 11 | 3.2 | 9.7 | 0.00 | 0.00 | 0.00 | 41 | 1012.5 |
| 20260504213516 | 22 | 18 | 3.2 | 9.7 | 0.00 | 0.00 | 0.00 | 40 | 1012.5 |
| 20260504212516 | 22 | 353 | 4.8 | 12.9 | 0.00 | 0.00 | 0.00 | 41 | 1012.6 |
| 20260504211516 | 23 | 192 | 3.2 | 16.1 | 0.00 | 0.00 | 0.00 | 40 | 1012.6 |
| 20260504210536 | 22 | 343 | 3.2 | 8.0 | 0.00 | 0.00 | 0.00 | 41 | 1012.6 |
| 20260504205516 | 23 | 1 | 3.2 | 6.4 | 0.00 | 0.00 | 0.00 | 41 | 1012.5 |
| 20260504204516 | 23 | 275 | 4.8 | 11.3 | 0.00 | 0.00 | 0.00 | 42 | 1012.5 |
| 20260504203517 | 23 | 20 | 3.2 | 8.0 | 0.00 | 0.00 | 0.00 | 42 | 1012.5 |
| 20260504202536 | 23 | 8 | 3.2 | 9.7 | 0.00 | 0.00 | 0.00 | 41 | 1012.7 |
| 20260504201517 | 22 | 151 | 3.2 | 9.7 | 0.00 | 0.00 | 0.00 | 42 | 1012.7 |
| 20260504200517 | 22 | 6 | 3.2 | 8.0 | 0.00 | 0.00 | 0.00 | 43 | 1012.8 |
| 20260504195556 | 22 | 344 | 3.2 | 8.0 | 0.00 | 0.00 | 0.00 | 44 | 1013.1 |
| 20260504194516 | 22 | 239 | 0.0 | 3.2 | 0.00 | 0.00 | 0.00 | 45 | 1013.2 |
| 20260504193517 | 21 | 1 | 1.6 | 4.8 | 0.00 | 0.00 | 0.00 | 45 | 1013.5 |
| 20260504192517 | 21 | 337 | 1.6 | 6.4 | 0.00 | 0.00 | 0.00 | 45 | 1013.5 |
| 20260504191537 | 22 | 173 | 1.6 | 6.4 | 0.00 | 0.00 | 0.00 | 44 | 1013.6 |
| 20260504190518 | 22 | 340 | 3.2 | 9.7 | 0.00 | 0.00 | 0.00 | 44 | 1013.8 |
| 20260504185518 | 22 | 357 | 1.6 | 8.0 | 0.00 | 0.00 | 0.00 | 43 | 1013.9 |
| 20260504184518 | 22 | 323 | 3.2 | 8.0 | 0.00 | 0.00 | 0.00 | 43 | 1014.0 |
| 20260504183518 | 21 | 16 | 3.2 | 11.3 | 0.00 | 0.00 | 0.00 | 44 | 1014.0 |
| 20260504182538 | 21 | 250 | 3.2 | 9.7 | 0.00 | 0.00 | 0.00 | 45 | 1014.2 |
| 20260504181518 | 20 | 331 | 3.2 | 8.0 | 0.00 | 0.00 | 0.00 | 48 | 1014.3 |
| 20260504180516 | 20 | 348 | 3.2 | 8.0 | 0.00 | 0.00 | 0.00 | 47 | 1014.3 |
| 20260504175516 | 20 | 3 | 1.6 | 6.4 | 0.00 | 0.00 | 0.00 | 47 | 1014.5 |
| 20260504174516 | 20 | 358 | 3.2 | 9.7 | 0.00 | 0.00 | 0.00 | 47 | 1014.9 |
| 20260504173536 | 20 | 141 | 3.2 | 6.4 | 0.00 | 0.00 | 0.00 | 46 | 1014.9 |
| 20260504172516 | 20 | 282 | 1.6 | 4.8 | 0.00 | 0.00 | 0.00 | 46 | 1014.9 |
| 20260504171516 | 21 | 174 | 1.6 | 6.4 | 0.00 | 0.00 | 0.00 | 44 | 1014.9 |
| 20260504170516 | 21 | 278 | 3.2 | 11.3 | 0.00 | 0.00 | 0.00 | 43 | 1015.1 |
| 20260504150536 | 16 | 186 | 3.2 | 8.0 | 0.00 | 0.00 | 0.00 | 48 | 1016.6 |